Location: *
(37.4917°N, 71.5558°E)
Time: 02:05:34
(UTC+00:00)

CENTAUR R/B - Pass Details

Date: 09 April 2020
Orbit: 761 x 1427 km, 63.5° (Epoch: 29 May)

Event Time Altitude Azimuth Distance (km) Brightness Sun altitude
Exits shadow 21:38:32 57° 68° (ENE) 1,098 2.9 -33.5°
Drops below altitude 10° 21:44:01 10° 37° (NE) 2,852 5.8 -32.7°
Sets 21:46:53 0° 35° (NE) 3,917 6.7 -32.3°
